TOURFACTS.DK  
Stats and Facts from Tour de France.

Tour de France 2018 starts in 199 days
  Riders   Stages   Teams   Summits   Yearly  


 
Search by year

 2017 - St. 21:  14824 starters.
  5132 different riders.
  635 teams.
  2232 stages.
  454 restdays.
  439589.60 km.
  5653 abandonnees.


Top 3
Christopher Froome86:20:55
Rigoberto Uran86:21:49
Romain Bardet86:23:15
Warren Barguil169 pt.
Primoz Roglic80 pt.
Thomas De Gendt64 pt.
Michael Matthews359 pt.
André Greipel234 pt.
Edvald Boasson Hagen220 pt.
Simon Yates86:27:09
Louis Meintjes86:29:15
Emanuel Buchmann86:54:16
Facts from Tour de France 2009
  |   Stages.  |   Stage winners.  |   Days in yellow  |   Average speed.  |   Route.  |   Teams.  |   All riders.  |   Rookies.  |   Withdrawls.  |  

  |   GC.  |   Polka  |   Green  |   White  |   Summits. (In tour)  |   Summits. (Points)  |   Miscellaneous.  |  

Stage 17 on 22 - 07 - 2009
         Owning:    Alberto Contador    
Pick a stage:  1 2 3 4 5 6 7 8 9 10 11 12 13 14 15 16 17 18 19 20 21
  Bourg-Saint-MauriceLe Grand-Bornand | Dist: 169.50 km.
Cat: 1Cormet de RoselendITAFranco Pellizotti
15 points
 
Cat: 1Col des SaisiesNORThor Hushovd
15 points
 
Cat: 2Côte de ArachesNORThor Hushovd
10 points
 
Cat: 1RommeFRAHubert Dupont
15 points
 
Cat: 1Col de la Colombiere LUXFränk Schleck
30 points
 

Average speed for all riders in stage:  32,024 km./hr.
    Place:Name:Team:Time:Km/h:
LUXFränk SchleckDNKTeam Saxo Bank04:53:54  +  00:00:00=34,604 
ESPAlberto ContadorKAZAstana Pro Team04:53:54  +  00:00:00=34,604 
LUXAndy SchleckDNKTeam Saxo Bank04:53:54  +  00:00:00=34,604 
4 ITAVincenzo NibaliITALiquigas04:56:12  +  00:02:18=34,335 
5 USALance ArmstrongKAZAstana Pro Team04:56:12  +  00:02:18=34,335 
6 GERAndréas KlödenKAZAstana Pro Team04:56:21  +  00:02:27=34,318 
7 BELBradley WigginsUSAGarmin-Slipstream04:57:01  +  00:03:07=34,241 
8 FRAChristophe MoreauFRAAgritubel04:58:03  +  00:04:09=34,122 
9 USAChristian VandeveldeUSAGarmin-Slipstream04:58:03  +  00:04:09=34,122 
10 FRARémi PauriolFRACofidis Le Credit En Ligne05:00:04  +  00:06:10=33,892 
11 FRAChristophe Le MevelFRAFrancaise Des Jeux05:00:04  +  00:06:10=33,892 
12 BELMaxime MonfortUSATeam Columbia-HTC05:00:06  +  00:06:12=33,889 
13 CZERoman KreuzigerITALiquigas05:00:06  +  00:06:12=33,889 
14 ITARinaldo NocentiniFRAAg2r La Mondiale05:00:06  +  00:06:12=33,889 
15 RUSVladimir KarpetsRUSTeam Katusha05:00:06  +  00:06:12=33,889 
16 BELJurgen Van Den BroeckBELSilence-Lotto05:00:06  +  00:06:12=33,889 
17 FRASandy CasarFRAFrancaise Des Jeux05:00:06  +  00:06:12=33,889 
18 ESPMikel AstarlozaESPEuskaltel - Euskadi05:00:06  +  00:06:12=33,889 
19 FRAStéphane GoubertFRAAg2r La Mondiale05:00:09  +  00:06:15=33,883 
20 ESPJose Luis ArrietaFRAAg2r La Mondiale05:00:13  +  00:06:19=33,876 
21 FRASylvain ChavanelBELQuick Step05:00:55  +  00:07:01=33,797 
22 FRASébastien MinardFRACofidis Le Credit En Ligne05:01:41  +  00:07:47=33,711 
23 AUSMatthew LloydBELSilence-Lotto05:01:41  +  00:07:47=33,711 
24 FRASylvain CalzatiFRAAgritubel05:01:41  +  00:07:47=33,711 
25 ESPCarlos SastreCHECervelo Test Team05:01:41  +  00:07:47=33,711 
26 CANRyder HesjedalUSAGarmin-Slipstream05:01:41  +  00:07:47=33,711 
27 RUSAlexandre BotcharovRUSTeam Katusha05:01:41  +  00:07:47=33,711 
28 ESPDavid ArroyoESPCaisse d´Epargne05:01:44  +  00:07:50=33,705 
29 RUSSerguei IvanovRUSTeam Katusha05:02:24  +  00:08:30=33,631 
30 SUIDavid LoosliITALampre-N.G.C05:02:48  +  00:08:54=33,587 
31 GERChristian KneesDEUTeam Milram05:02:48  +  00:08:54=33,587 
32 ESPCarlos BarredoBELQuick Step05:02:48  +  00:08:54=33,587 
33 FRAHubert DupontFRAAg2r La Mondiale05:02:48  +  00:08:54=33,587 
34 FRAPierre RollandFRABbox Bouygues Telecom05:02:48  +  00:08:54=33,587 
35 COLRigoberto UranESPCaisse d´Epargne05:02:52  +  00:08:58=33,579 
36 BELStijn VandenberghRUSTeam Katusha05:04:54  +  00:11:00=33,355 
37 ESPEgoi MartínezESPEuskaltel - Euskadi05:04:54  +  00:11:00=33,355 
38 FRAChristophe KernFRACofidis Le Credit En Ligne05:05:14  +  00:11:20=33,319 
39 FRABrice FeilluFRAAgritubel05:05:44  +  00:11:50=33,264 
40 GERGrischa NiermannNLDRabobank05:05:44  +  00:11:50=33,264 
41 FRANicolas RocheFRAAg2r La Mondiale05:05:44  +  00:11:50=33,264 
42 NEDJoost PosthumaNLDRabobank05:05:44  +  00:11:50=33,264 
43 COLLeonardo DuqueFRACofidis Le Credit En Ligne05:05:44  +  00:11:50=33,264 
44 USAGeorge HincapieUSATeam Columbia-HTC05:05:44  +  00:11:50=33,264 
45 ITAMarzio BruseghinITALampre-N.G.C05:05:44  +  00:11:50=33,264 
46 BELStijn DevolderBELQuick Step05:05:44  +  00:11:50=33,264 
47 ESPLuis RodriguezESPCaisse d´Epargne05:07:24  +  00:13:30=33,084 
48 ESPRuben PerezESPEuskaltel - Euskadi05:07:24  +  00:13:30=33,084 
49 BELSébastien RosselerBELQuick Step05:09:27  +  00:15:33=32,865 
50 DENNicki SørensenDNKTeam Saxo Bank05:11:27  +  00:17:33=32,654 
51 FRAThomas VoecklerFRABbox Bouygues Telecom05:11:27  +  00:17:33=32,654 
52 DENChris Anker SørensenDNKTeam Saxo Bank05:11:27  +  00:17:33=32,654 
53 FRALaurent LefèvreFRABbox Bouygues Telecom05:11:27  +  00:17:33=32,654 
54 FINJussi VeikkanenFRAFrancaise Des Jeux05:11:27  +  00:17:33=32,654 
55 ESPHaimar ZubeldiaKAZAstana Pro Team05:11:27  +  00:17:33=32,654 
56 GERLinus GerdemannDEUTeam Milram05:11:27  +  00:17:33=32,654 
57 PORSergio PaulinhoKAZAstana Pro Team05:11:27  +  00:17:33=32,654 
58 USADavid ZabriskieUSAGarmin-Slipstream05:11:27  +  00:17:33=32,654 
59 ITAFranco PellizottiITALiquigas05:11:27  +  00:17:33=32,654 
60 UKRYaroslav PopovychKAZAstana Pro Team05:15:25  +  00:21:31=32,243 
61 ESPIñigo CuestaCHECervelo Test Team05:15:25  +  00:21:31=32,243 
62 ARGJuan Antonio FlechaNLDRabobank05:15:25  +  00:21:31=32,243 
63 RUSDenis MenchovNLDRabobank05:15:25  +  00:21:31=32,243 
64 ESPGorka VerdugoESPEuskaltel - Euskadi05:19:32  +  00:25:38=31,828 
65 ITAFilippo PozzatoRUSTeam Katusha05:23:37  +  00:29:43=31,426 
66 ITAAlessandro BallanITALampre-N.G.C05:23:37  +  00:29:43=31,426 
67 FRAThierry HupondNLDSkil-Shimano05:23:37  +  00:29:43=31,426 
68 NEDKoen De KortNLDSkil-Shimano05:23:37  +  00:29:43=31,426 
69 ESPJosé Joaquin RojasESPCaisse d´Epargne05:23:37  +  00:29:43=31,426 
70 NEDStef ClementNLDRabobank05:23:37  +  00:29:43=31,426 
71 FRAJérémy RoyFRAFrancaise Des Jeux05:23:37  +  00:29:43=31,426 
72 ITAMauro SantambrogioITALampre-N.G.C05:23:37  +  00:29:43=31,426 
73 SLOSimon SpilakITALampre-N.G.C05:23:37  +  00:29:43=31,426 
74 FRAMaxime BouetFRAAgritubel05:23:37  +  00:29:43=31,426 
75 ESPAlan PerezESPEuskaltel - Euskadi05:23:37  +  00:29:43=31,426 
76 ESPJuan José OrozESPEuskaltel - Euskadi05:23:37  +  00:29:43=31,426 
77 JPNFumiyuki BeppuNLDSkil-Shimano05:23:37  +  00:29:43=31,426 
78 AUSHeinrich HausslerCHECervelo Test Team05:23:37  +  00:29:43=31,426 
79 NORThor HushovdCHECervelo Test Team05:23:37  +  00:29:43=31,426 
80 UKRVolodymir GustovCHECervelo Test Team05:23:37  +  00:29:43=31,426 
81 AUSCadel EvansBELSilence-Lotto05:23:37  +  00:29:43=31,426 
82 AUSBrett LancasterCHECervelo Test Team05:23:37  +  00:29:43=31,426 
83 BELStaf ScheirlinckxBELSilence-Lotto05:23:37  +  00:29:43=31,426 
84 ESPJosé Ivan GutierrezESPCaisse d´Epargne05:23:37  +  00:29:43=31,426 
85 ESPJuan Manuel GarateNLDRabobank05:23:37  +  00:29:43=31,426 
86 RUSNikolai TrusovRUSTeam Katusha05:23:37  +  00:29:43=31,426 
87 ESPLuis León SánchezESPCaisse d´Epargne05:23:37  +  00:29:43=31,426 
88 SWEGustav LarssonDNKTeam Saxo Bank05:23:37  +  00:29:43=31,426 
89 FINCharles WegeliusBELSilence-Lotto05:23:37  +  00:29:43=31,426 
90 FRAGeoffroy LequatreFRAAgritubel05:23:37  +  00:29:43=31,426 
91 GERJohannes FröhlingerDEUTeam Milram05:23:37  +  00:29:43=31,426 
92 FRAChristophe RiblonFRAAg2r La Mondiale05:23:37  +  00:29:43=31,426 
93 SVKPeter VelitsDEUTeam Milram05:23:37  +  00:29:43=31,426 
94 FRAAlexandre PichotFRABbox Bouygues Telecom05:23:37  +  00:29:43=31,426 
95 FRAPierrick FédrigoFRABbox Bouygues Telecom05:23:37  +  00:29:43=31,426 
96 FRAJérôme PineauBELQuick Step05:23:37  +  00:29:43=31,426 
97 ESPOscar FreireNLDRabobank05:23:37  +  00:29:43=31,426 
98 ESPJoan HorrachRUSTeam Katusha05:23:37  +  00:29:43=31,426 
99 SUIGregory RastKAZAstana Pro Team05:23:37  +  00:29:43=31,426 
100 ESPBingen FernandezFRACofidis Le Credit En Ligne05:23:37  +  00:29:43=31,426 
101 KAZDmitriy MuravyevKAZAstana Pro Team05:23:37  +  00:29:43=31,426 
102 FRAMickael DelageBELSilence-Lotto05:23:37  +  00:29:43=31,426 
103 NEDMartijn MaaskantUSAGarmin-Slipstream05:23:37  +  00:29:43=31,426 
104 ITADaniele RighiITALampre-N.G.C05:23:37  +  00:29:43=31,426 
105 MLTDavid MillarUSAGarmin-Slipstream05:23:37  +  00:29:43=31,426 
106 BELGreg Van AvermaetBELSilence-Lotto05:23:37  +  00:29:43=31,426 
107 NZLJulian DeanUSAGarmin-Slipstream05:23:37  +  00:29:43=31,426 
108 BELJohan VansummerenBELSilence-Lotto05:23:37  +  00:29:43=31,426 
109 BELFrederik WillemsITALiquigas05:23:37  +  00:29:43=31,426 
110 GERSimon GeschkeNLDSkil-Shimano05:23:37  +  00:29:43=31,426 
111 NEDLaurens ten DamNLDRabobank05:23:37  +  00:29:43=31,426 
112 USADanny PateUSAGarmin-Slipstream05:23:37  +  00:29:43=31,426 
113 ITAMatteo TosattoBELQuick Step05:29:41  +  00:35:47=30,848 
114 ITAMarco BandieraITALampre-N.G.C05:29:41  +  00:35:47=30,848 
115 AUTBernhard EiselUSATeam Columbia-HTC05:29:41  +  00:35:47=30,848 
116 IOMMark CavendishUSATeam Columbia-HTC05:29:41  +  00:35:47=30,848 
117 ITAFabio SabatiniITALiquigas05:29:41  +  00:35:47=30,848 
118 GERGerald CiolekDEUTeam Milram05:29:41  +  00:35:47=30,848 
119 FRALloyd MondoryFRAAg2r La Mondiale05:29:41  +  00:35:47=30,848 
120 ITADaniele BennatiITALiquigas05:29:41  +  00:35:47=30,848 
121 BLRAliaksandr KuchynskiITALiquigas05:29:41  +  00:35:47=30,848 
122 NEDSteven de JonghBELQuick Step05:29:41  +  00:35:47=30,848 
123 GERSebastian LangBELSilence-Lotto05:29:41  +  00:35:47=30,848 
124 GERTony MartinUSATeam Columbia-HTC05:29:41  +  00:35:47=30,848 
125 GERBert GrabschUSATeam Columbia-HTC05:29:41  +  00:35:47=30,848 
126 ESPIgor AntonESPEuskaltel - Euskadi05:29:41  +  00:35:47=30,848 
127 FRAWilliam BonnetFRABbox Bouygues Telecom05:29:41  +  00:35:47=30,848 
128 ITAAlessandro VanottiITALiquigas05:29:41  +  00:35:47=30,848 
129 RUSYury TrofimovFRABbox Bouygues Telecom05:29:41  +  00:35:47=30,848 
130 NZLHayden RoulstonCHECervelo Test Team05:29:41  +  00:35:47=30,848 
131 AUSStuart O'GradyDNKTeam Saxo Bank05:29:41  +  00:35:47=30,848 
132 DENBrian VandborgITALiquigas05:29:41  +  00:35:47=30,848 
133 AUSMichael RogersUSATeam Columbia-HTC05:29:41  +  00:35:47=30,848 
134 USATyler FarrarUSAGarmin-Slipstream05:29:41  +  00:35:47=30,848 
135 POLMarcin SapaITALampre-N.G.C05:29:41  +  00:35:47=30,848 
136 FRADavid MoncoutiéFRACofidis Le Credit En Ligne05:29:41  +  00:35:47=30,848 
137 RUSMikhail IgnatyevRUSTeam Katusha05:29:41  +  00:35:47=30,848 
138 AUSMark RenshawUSATeam Columbia-HTC05:29:41  +  00:35:47=30,848 
139 FRAStéphane AugeFRACofidis Le Credit En Ligne05:29:41  +  00:35:47=30,848 
140 BLRYauheni HutarovichFRAFrancaise Des Jeux05:29:41  +  00:35:47=30,848 
141 FRASamuel DumoulinFRACofidis Le Credit En Ligne05:29:41  +  00:35:47=30,848 
142 FRAAmaël MoinardFRACofidis Le Credit En Ligne05:29:41  +  00:35:47=30,848 
143 ESPAmets TxurrukaESPEuskaltel - Euskadi05:29:41  +  00:35:47=30,848 
144 FRAAnthony GeslinFRAFrancaise Des Jeux05:29:41  +  00:35:47=30,848 
145 FRAJonathan HivertNLDSkil-Shimano05:29:41  +  00:35:47=30,848 
146 NEDAlbert TimmerNLDSkil-Shimano05:29:41  +  00:35:47=30,848 
147 FRANicolas VogondyFRAAgritubel05:29:41  +  00:35:47=30,848 
148 FRACyril LemoineNLDSkil-Shimano05:29:41  +  00:35:47=30,848 
149 FRASaid HaddouFRABbox Bouygues Telecom05:29:41  +  00:35:47=30,848 
150 FRAArnaud CoyotESPCaisse d´Epargne05:29:41  +  00:35:47=30,848 
151 JPNYukiya ArashiroFRABbox Bouygues Telecom05:29:41  +  00:35:47=30,848 
152 FRABenoit VaugrenardFRAFrancaise Des Jeux05:29:41  +  00:35:47=30,848 
153 LUXKim KirchenUSATeam Columbia-HTC05:29:41  +  00:35:47=30,848 
154 GERMarkus FothenDEUTeam Milram05:29:41  +  00:35:47=30,848 
155 NEDNiki TerpstraDEUTeam Milram05:29:41  +  00:35:47=30,848 
156 GERAndreas KlierCHECervelo Test Team05:29:52  +  00:35:58=30,831 
157 SUIFabian CancellaraDNKTeam Saxo Bank05:29:53  +  00:35:59=30,829 
158 GERFabian WegmannDEUTeam Milram05:29:53  +  00:35:59=30,829 

Withdrawls: 1
 
Rider
Team
Reason
39  GERJens VoigtDNKTeam Saxo BankDid not finish

Todays birthdays.

1893  Luigi Lucotti
1905  Francois Favé
1925  Jean Baldassari
1937  Henry Duez
1941  Joseph Huysmans
1952  Roland Smet
1973  Ruslan Ivanov
1974  Bram de Groot
1975  Michael Barry
1983  Janez Brajkovic